Lapse_Rate
6.4 6.6 6.7 6.7 6.7 7.5 7.1 7.2 6.6 6.6 6.5 6.5 6.6 6.5 6.4 6.4 6.0 6.0 6.4 6.0 6.0 6.3 6.3 6.2 6.1 6.0 5.8 5.7 5.5 5.5 5.7 5.6 5.6 5.7 5.7 5.7 5.7 5.8 5.8 5.9 5.9 5.8 5.8 6.0 6.0 5.8 5.8 5.7 5.7
6.7 6.7 7.0 7.2 7.1 7.3 7.4 7.1 6.9 6.7 6.7 6.5 6.5 6.2 6.1 5.9 5.9 6.2 6.2 6.2 5.8 6.1 6.2 6.2 5.9 6.0 5.9 5.8 5.6 5.5 5.4 5.5 5.5 5.6 5.5 5.6 5.7 5.9 5.8 5.7 5.7 5.7 5.8 5.9 5.9 5.9 5.8 5.8 5.8
6.9 7.0 6.7 7.4 8.0 7.8 7.5 7.3 6.9 6.6 6.6 6.2 6.1 6.5 6.3 5.8 5.9 6.0 6.1 6.3 5.7 5.9 6.1 6.1 6.0 5.8 5.9 5.9 5.7 5.6 5.6 5.5 5.5 5.4 5.4 5.6 5.7 5.8 5.8 5.7 5.6 5.7 5.7 5.7 5.7 5.7 5.7 5.6 5.7
7.2 7.1 7.5 7.9 8.3 7.9 7.9 7.2 7.0 6.8 6.9 6.4 6.6 6.4 6.0 6.2 5.3 5.3 6.3 6.3 5.0 5.8 6.0 5.9 6.0 5.8 5.8 5.9 5.8 5.7 5.8 5.6 5.3 5.2 5.4 5.5 5.4 5.5 5.6 5.6 5.5 5.6 5.6 5.6 5.6 5.7 5.6 5.5 5.5
7.2 6.8 8.4 9.2 8.7 8.3 7.5 7.3 7.3 7.2 6.9 6.8 6.6 6.2 6.0 6.4 6.3 6.2 6.2 6.1 5.1 4.8 6.1 6.1 5.9 5.9 5.7 5.8 5.9 5.7 5.7 5.6 5.5 5.2 5.4 5.3 5.3 5.3 5.3 5.4 5.4 5.5 5.4 5.5 5.4 5.4 5.6 5.5 5.4
6.7 7.7 9.4 9.3 9.1 8.3 8.6 7.4 7.4 7.2 6.8 6.7 6.4 6.4 6.0 6.3 6.3 6.3 6.1 5.5 5.1 5.0 5.9 6.1 6.0 5.9 5.7 5.8 5.9 5.9 5.7 5.5 5.4 5.3 5.3 5.1 5.1 5.1 5.2 5.2 5.2 5.4 5.3 5.2 5.3 5.4 5.5 5.4 5.3
7.4 9.1 9.4 9.3 8.8 8.6 8.4 7.4 7.6 7.1 7.0 6.7 6.6 6.4 6.1 6.1 6.3 6.2 5.8 5.1 5.0 5.0 5.1 6.0 6.2 6.0 5.8 5.8 5.8 5.8 5.5 5.4 5.4 5.3 5.2 5.2 5.1 5.1 5.3 5.3 5.2 5.3 5.3 5.2 5.2 5.3 5.4 5.5 5.4
7.6 8.8 9.3 9.0 9.3 8.6 7.6 7.4 6.9 6.9 6.7 6.6 6.8 6.8 5.9 6.2 6.1 6.2 5.5 5.1 5.1 5.0 5.8 6.1 6.2 6.1 5.9 5.8 5.8 5.6 5.5 5.4 5.4 5.4 5.1 5.2 5.3 5.1 5.0 5.0 5.2 5.2 5.1 5.2 5.3 5.4 5.6 5.5 5.3
8.1 9.4 9.3 9.3 9.0 8.0 7.5 7.8 7.0 6.8 7.2 6.9 6.6 6.6 6.2 6.4 6.2 5.8 5.3 5.2 5.5 5.9 5.2 6.0 5.9 6.0 5.8 5.7 5.6 5.6 5.5 5.5 5.5 5.4 5.2 5.3 5.2 5.3 4.5 4.9 5.1 5.3 5.3 5.3 5.2 5.2 5.6 5.5 5.4
8.8 9.4 8.4 7.9 8.8 8.4 8.1 7.7 7.4 7.6 7.3 6.9 6.8 6.6 6.8 6.4 6.3 5.2 5.1 5.2 5.7 6.1 5.6 5.2 5.8 5.9 5.9 5.7 5.8 5.7 5.6 5.5 5.6 5.5 5.5 5.4 5.3 4.7 5.4 4.8 5.1 5.3 5.3 5.3 5.1 5.2 5.5 5.4 5.5
8.5 9.3 8.2 8.0 7.6 7.7 8.6 9.2 8.1 8.0 8.0 7.6 7.3 6.7 7.2 6.9 6.3 5.3 5.3 5.1 5.0 6.0 5.2 5.0 5.8 5.6 6.0 5.8 5.8 5.7 5.7 5.5 5.6 5.7 5.5 5.6 5.4 5.2 5.2 5.0 5.3 5.3 5.3 5.3 5.2 5.3 5.6 5.4 5.4
9.1 8.4 8.3 8.2 8.1 7.9 8.1 9.1 9.3 9.2 8.1 7.7 7.4 6.8 7.1 7.0 6.3 5.6 5.5 5.4 5.0 5.8 5.7 5.0 5.5 6.0 6.0 6.0 6.0 5.6 5.5 5.5 5.6 5.5 5.5 5.5 5.4 5.4 5.5 5.3 5.2 5.2 5.2 5.3 5.2 5.2 5.5 5.6 5.7
8.6 9.3 9.0 8.6 8.7 8.5 8.4 8.7 8.9 9.1 8.3 7.6 7.4 7.0 7.0 6.9 6.0 5.9 5.9 5.8 5.5 5.9 5.8 5.8 5.4 5.9 5.9 5.9 5.9 5.4 5.4 5.3 5.6 5.1 5.1 5.0 5.2 5.6 5.5 5.2 5.1 5.3 5.2 5.3 5.3 5.2 5.4 5.5 5.5
8.7 8.7 9.1 8.8 9.1 9.3 8.7 8.7 8.7 8.8 8.1 7.8 7.5 7.0 6.4 6.2 6.2 6.2 6.0 5.8 6.0 6.1 6.0 5.9 5.8 5.9 5.8 5.7 5.9 5.8 5.7 5.7 5.8 5.3 5.0 4.9 5.0 5.1 5.4 5.3 5.1 5.2 5.5 5.5 5.4 5.4 5.5 5.6 5.7
8.4 8.9 9.5 9.6 9.1 9.0 8.7 9.2 9.0 8.6 8.1 7.8 7.6 7.3 7.2 6.7 6.5 6.3 6.2 6.0 6.0 5.8 5.4 5.5 5.7 5.7 5.7 5.8 5.8 6.0 6.0 5.3 5.6 5.2 5.4 5.1 5.1 5.4 5.5 5.3 5.2 5.1 5.2 5.3 5.4 5.4 5.4 5.6 5.5
8.7 9.1 9.6 9.6 8.8 8.8 8.8 9.4 8.9 9.0 8.2 8.2 7.6 7.3 7.2 6.9 6.7 6.5 6.4 6.2 5.9 5.5 5.6 5.9 5.5 5.3 6.0 6.0 5.9 6.0 5.9 5.5 5.6 5.6 5.7 5.5 5.4 5.6 5.5 5.6 5.3 5.4 5.4 5.2 5.4 5.5 5.4 5.5 5.5
9.3 9.6 9.6 9.7 8.9 8.7 9.4 9.6 8.9 9.1 8.4 8.2 7.7 7.4 7.2 7.2 6.9 6.7 6.7 6.5 6.1 6.2 6.1 6.1 5.8 5.7 5.9 6.2 5.9 6.0 6.1 6.0 5.9 5.8 5.5 5.6 5.6 5.6 5.6 5.6 5.5 5.6 5.5 5.5 5.3 5.3 5.5 5.5 5.6
9.7 9.7 9.7 9.7 9.6 9.1 9.7 9.7 9.3 8.7 8.4 7.9 8.0 7.9 7.5 7.3 7.2 6.9 6.7 6.5 6.5 6.0 6.3 6.1 6.3 6.1 5.8 5.9 6.0 5.8 6.0 6.0 5.8 5.8 5.8 5.9 5.6 5.6 5.3 5.6 5.6 5.8 5.8 5.6 5.6 5.4 5.7 5.5 5.4
9.0 9.6 9.7 9.7 9.0 8.8 9.7 9.6 9.6 8.6 8.0 8.0 8.2 8.1 8.4 8.0 7.5 7.3 6.8 6.8 6.7 6.5 6.8 6.8 6.7 6.5 6.2 6.0 5.9 5.8 5.7 5.9 6.2 6.1 5.9 5.8 5.7 5.4 5.4 5.5 5.8 5.8 5.8 5.7 5.6 5.4 5.4 5.5 5.3
9.3 9.6 9.7 9.7 9.0 8.9 9.6 9.6 9.2 8.3 8.1 8.0 7.9 7.9 7.9 7.7 7.8 7.5 6.9 7.0 6.7 6.6 6.4 7.0 6.9 6.8 6.5 6.3 6.1 5.8 5.7 5.8 5.9 6.2 6.1 5.9 5.8 5.7 5.6 5.4 5.6 5.7 5.4 5.7 5.6 5.6 5.5 5.4 5.5
9.6 9.7 9.7 9.7 9.5 9.1 9.4 8.9 9.1 8.5 8.5 8.1 7.9 7.8 7.6 7.5 8.4 8.0 7.3 7.2 6.8 6.6 6.4 7.0 7.0 6.8 6.6 6.3 6.2 6.1 5.9 5.9 5.7 5.5 5.7 5.9 6.1 6.0 5.8 5.8 5.5 5.6 5.5 5.6 5.6 5.6 5.8 5.6 5.5
9.7 9.7 9.5 9.5 9.5 9.7 9.5 8.1 9.3 8.5 8.3 8.0 8.0 7.8 7.9 7.8 7.9 8.0 7.5 7.1 6.9 6.7 6.5 7.0 6.8 6.8 6.8 6.5 6.3 6.3 6.2 5.9 5.9 5.3 5.4 5.5 6.0 6.4 5.9 6.0 5.8 5.5 5.4 5.2 5.5 5.5 5.8 5.6 5.6
9.6 9.2 9.6 9.7 9.6 9.6 9.6 8.0 6.6 9.0 8.8 8.2 8.1 7.7 7.6 7.7 7.7 8.1 7.9 7.2 7.5 7.1 6.9 7.1 7.1 7.0 6.9 6.8 6.5 6.3 6.2 6.1 5.7 5.5 6.0 5.7 5.5 6.0 6.1 6.0 5.8 5.7 5.6 5.8 5.6 5.5 5.6 5.8 5.8
9.1 9.1 9.4 9.6 9.6 9.8 9.4 9.6 7.0 8.7 8.9 8.4 8.0 7.6 7.4 7.3 7.3 8.0 7.9 7.8 7.5 7.3 7.2 7.1 7.0 7.0 6.9 6.7 6.6 6.2 6.2 5.9 5.8 5.6 5.6 5.8 5.6 5.7 6.1 6.0 5.9 5.8 5.9 5.8 5.9 5.6 5.6 5.4 5.6
9.0 9.6 9.7 9.8 9.8 8.9 9.0 9.6 8.0 9.1 8.5 8.3 8.2 7.5 7.3 7.3 7.6 7.3 7.8 7.7 7.5 7.4 7.2 7.2 7.3 7.2 7.0 6.6 6.4 6.4 6.2 5.6 5.1 5.4 5.7 5.5 5.6 5.4 5.8 6.1 5.9 6.1 6.0 5.9 6.0 6.0 5.8 5.5 5.5
9.6 9.6 9.7 9.7 9.6 9.9 9.6 9.7 8.8 8.7 8.5 8.6 8.3 7.6 7.3 7.2 7.3 7.7 7.6 7.4 7.3 7.3 7.3 7.3 7.1 7.0 7.0 6.7 6.3 5.9 4.9 5.0 5.2 5.0 5.4 5.7 5.7 5.5 5.8 5.9 6.1 6.0 6.1 5.9 6.0 6.1 6.1 5.9 5.8
9.6 9.6 9.6 9.7 9.7 9.8 9.6 9.6 8.5 8.5 8.1 8.0 7.7 7.5 7.3 7.1 7.0 7.4 7.8 7.8 7.5 7.3 7.2 7.2 7.0 6.9 6.8 6.6 6.2 5.5 4.9 4.8 4.7 4.9 4.8 5.5 5.8 5.5 5.9 5.8 6.0 6.1 5.9 5.8 5.8 5.9 6.0 5.9 6.0
9.5 9.5 9.7 9.7 9.2 9.5 8.4 8.9 9.0 8.2 8.2 7.9 7.6 7.5 7.3 7.0 6.7 6.9 7.6 7.8 7.9 7.7 7.4 7.2 6.9 6.7 6.7 6.3 6.1 5.7 5.6 5.0 4.9 5.2 5.0 5.6 5.9 5.8 6.1 5.9 6.1 6.0 5.9 5.9 5.9 6.0 6.1 6.1 5.9
9.4 9.5 9.6 9.3 9.4 10.0 9.6 8.9 8.4 9.0 8.4 8.1 7.5 7.5 7.2 7.0 6.7 6.8 7.3 7.3 7.5 7.6 7.5 7.4 7.0 6.7 6.5 6.3 6.0 5.6 5.7 5.0 4.6 4.9 5.4 6.3 6.2 6.0 6.0 5.9 6.1 6.1 6.2 6.0 6.1 5.9 6.1 6.1 5.7
9.6 9.7 9.1 9.7 9.4 8.8 9.4 8.9 8.9 8.5 8.3 7.9 7.6 7.4 7.1 6.9 6.6 7.0 7.3 7.3 7.1 7.2 7.4 7.3 7.3 6.9 6.7 6.4 6.1 5.9 5.9 6.1 5.5 5.4 5.7 6.4 6.6 6.5 6.3 6.3 6.3 6.2 6.2 6.1 6.1 6.2 6.1 5.9 5.9
Wind_Speed
11 12 5 5 4 1 8 9 18 13 3 4 9 6 4 12 12 6 17 17 21 21 24 18 14 17 18 16 17 17 15 13 11 11 11 11 12 11 11 11 12 12 12 12 12 12 13 15 16
5 2 5 5 2 2 8 4 7 11 10 8 4 11 1 10 12 14 17 20 21 21 24 21 15 17 17 17 16 16 16 14 13 12 11 10 11 10 10 10 9 10 11 10 11 12 12 13 14
12 5 5 5 3 9 7 10 11 9 7 6 2 9 11 9 7 15 15 21 20 19 23 24 17 16 17 17 16 16 15 14 13 12 11 9 9 9 10 9 9 9 8 10 9 11 13 12 13
5 6 5 4 11 9 13 8 8 9 8 5 6 10 9 6 10 7 19 21 19 18 23 24 19 16 16 16 16 16 15 13 12 11 11 9 7 7 7 8 8 8 7 6 7 8 11 11 10
8 7 8 8 10 10 12 12 8 6 9 8 6 11 10 6 8 17 19 18 19 18 25 24 18 17 15 15 15 15 15 13 11 11 10 9 8 7 6 5 5 6 6 6 5 6 7 9 8
8 4 4 9 8 7 9 8 4 8 6 7 4 13 9 9 14 17 18 17 16 16 24 22 17 15 15 15 15 15 14 13 11 10 10 10 9 8 7 7 6 6 5 5 5 6 7 4 5
7 7 6 10 7 11 11 5 11 5 1 12 3 11 8 12 16 16 16 15 15 12 17 20 19 15 14 15 15 14 13 12 12 11 10 11 10 10 11 10 9 8 9 9 8 9 9 8 7
8 5 11 11 10 10 9 8 6 10 13 4 6 5 10 16 16 16 15 14 15 12 15 15 17 17 15 16 14 15 14 12 12 12 12 12 10 13 10 7 9 8 7 8 9 9 9 10 10
9 1 8 9 11 9 6 3 7 2 6 3 5 8 18 18 17 16 15 14 13 10 13 14 15 16 15 16 17 13 13 11 12 13 13 11 15 10 3 11 7 7 8 9 10 10 10 10 12
12 8 9 6 6 6 9 4 5 5 6 10 6 9 16 17 16 17 16 15 15 13 12 13 14 15 15 14 18 14 14 14 14 13 11 13 16 8 27 17 11 6 6 7 9 10 11 12 15
3 7 3 6 9 9 6 4 4 6 7 7 8 12 15 15 16 16 15 15 15 14 12 10 11 13 13 10 13 13 14 13 15 13 12 12 11 12 10 14 7 6 8 9 14 14 14 16 8
7 2 1 3 2 4 7 7 7 4 6 6 6 14 15 15 15 15 15 14 13 14 11 11 9 10 10 11 9 12 8 8 6 13 14 11 10 8 5 8 9 10 7 10 12 8 13 8 11
9 2 4 2 2 4 3 5 8 6 3 2 9 13 16 15 15 14 14 14 14 14 13 11 10 10 9 7 7 6 8 8 12 13 12 10 10 3 5 2 5 4 13 6 5 7 7 5 7
4 7 6 3 4 4 6 9 2 8 3 2 7 12 14 14 14 13 13 13 14 14 14 14 12 11 11 9 6 4 6 6 15 12 9 9 11 5 5 4 7 9 11 10 7 6 6 5 9
6 10 5 7 3 6 7 16 4 7 3 5 5 8 11 13 14 13 12 12 14 13 14 14 13 13 12 13 9 9 9 10 6 6 4 8 7 8 4 4 4 8 7 7 8 8 10 6 7
8 8 6 7 4 5 7 3 9 4 3 4 5 7 8 11 13 13 14 13 15 13 13 13 12 14 14 11 9 10 11 4 4 6 8 11 8 10 4 6 6 9 10 10 4 7 6 7 7
8 5 3 3 3 6 5 9 11 4 1 2 7 10 8 10 12 14 13 14 12 14 13 14 13 8 12 12 9 10 9 8 6 7 8 14 12 9 9 7 4 7 5 4 5 5 5 6 6
3 6 2 2 6 6 9 6 14 7 3 4 5 6 9 7 13 13 15 15 13 15 13 14 12 13 12 9 9 9 9 9 10 8 9 7 10 9 7 10 5 7 5 4 4 6 6 7 5
9 8 8 2 3 10 9 3 4 4 3 4 0 3 3 12 12 10 14 15 15 15 15 14 14 13 11 9 10 10 10 9 8 8 11 11 12 7 9 8 7 7 6 4 4 5 4 5 6
10 13 13 3 3 9 11 9 7 5 4 3 3 1 2 2 5 8 11 14 18 16 17 16 14 14 11 10 10 9 9 10 7 8 9 9 10 9 11 8 8 7 1 5 5 5 3 4 6
15 14 9 6 3 14 10 17 9 8 7 5 5 2 7 3 0 4 10 13 15 17 16 14 15 14 14 14 9 8 8 7 4 5 5 11 14 13 10 8 9 5 7 5 6 7 6 6 5
15 4 3 8 11 11 4 4 3 12 10 6 5 5 1 6 5 3 5 10 11 13 13 13 13 13 12 13 12 12 11 10 8 5 8 4 9 9 12 12 8 5 5 7 7 7 4 6 5
13 5 10 12 12 18 10 10 12 10 13 10 6 5 6 4 7 2 2 3 6 9 11 11 12 11 12 12 14 10 13 11 9 7 9 7 3 6 9 10 8 6 8 10 6 7 6 6 8
12 10 14 14 15 10 8 3 4 11 10 10 9 5 3 7 4 6 6 4 6 7 7 7 8 10 10 11 11 15 11 12 7 5 2 5 8 7 9 11 8 8 9 9 8 9 8 8 7
11 16 13 12 10 3 19 14 15 7 12 10 7 8 4 5 5 7 6 5 4 5 6 5 5 7 7 9 12 15 14 5 5 6 5 8 5 5 9 7 8 10 11 9 7 6 7 8 9
15 16 13 4 6 8 13 1 6 11 14 10 6 9 4 6 6 7 8 7 7 7 6 4 4 4 4 8 11 10 11 7 4 6 5 8 5 6 4 6 7 11 10 10 9 7 8 10 9
15 6 18 14 10 9 5 2 12 12 12 10 8 7 7 8 7 8 8 8 7 6 5 5 6 5 5 7 7 8 6 11 9 8 9 7 7 7 6 9 9 9 11 12 12 9 10 10 7
17 15 6 6 1 10 7 17 7 11 10 10 8 7 8 8 9 9 8 7 6 6 5 4 3 4 0 3 2 3 6 4 2 4 8 6 7 7 7 10 11 10 11 9 9 10 11 10 9
11 12 10 7 11 8 3 4 8 8 9 8 7 4 7 8 9 9 8 7 6 5 4 3 3 4 4 4 2 2 5 7 6 6 5 8 7 7 9 9 8 9 10 10 10 11 10 9 10
12 7 15 9 4 14 13 9 8 10 8 9 8 5 7 8 8 8 8 7 6 4 3 2 1 3 4 5 5 6 5 6 6 7 7 8 9 9 10 11 11 12 10 11 10 12 10 10 11
Wind_Direction
180 205 228 252 279 186 46 34 49 44 307 7 87 22 116 44 44 89 133 156 139 139 141 150 141 144 148 149 149 148 148 145 131 121 114 109 109 113 111 113 113 114 109 107 108 110 114 123 118
220 269 231 268 236 171 84 64 101 58 64 92 86 77 63 66 56 118 147 136 149 140 146 145 140 141 146 147 147 147 148 148 140 132 124 118 116 116 116 114 109 113 117 115 122 123 119 117 116
256 281 268 299 33 54 67 42 82 66 34 92 16 50 16 66 96 134 130 144 150 144 152 132 141 142 146 148 147 147 148 150 146 140 137 133 128 123 120 118 116 115 114 123 124 133 131 129 127
244 205 234 242 68 52 80 74 102 119 111 41 340 73 109 24 129 140 142 151 145 147 153 139 145 147 149 150 153 154 155 156 155 150 149 147 148 139 136 134 133 134 127 116 109 121 129 122 129
245 255 257 95 69 76 71 58 28 92 70 47 333 72 75 97 116 130 148 158 144 156 123 144 151 153 155 155 158 163 164 164 164 164 162 162 168 163 159 158 160 165 152 148 140 135 129 128 130
268 249 9 74 93 88 80 85 51 68 62 100 55 88 67 114 137 146 152 157 154 152 140 147 152 160 167 167 165 167 169 170 176 180 181 184 190 194 196 199 200 196 190 177 177 177 167 173 179
279 308 62 83 98 72 71 36 13 88 41 55 147 62 107 137 137 150 156 152 150 160 129 150 165 167 178 182 180 181 182 182 187 195 203 206 211 218 216 207 209 213 217 217 214 215 223 225 218
283 279 80 48 68 57 74 66 11 11 64 53 324 109 157 143 154 155 161 156 144 165 138 155 170 174 184 181 190 195 194 196 200 206 217 218 222 228 224 233 211 224 246 253 244 236 231 233 227
255 296 61 60 67 97 85 53 64 6 95 14 69 23 128 146 161 159 164 160 146 175 159 167 172 176 193 184 175 194 200 206 209 218 224 226 239 205 273 223 220 211 227 241 242 229 218 219 223
270 66 67 358 63 81 104 354 29 297 102 132 96 92 129 154 166 166 173 162 172 177 177 179 173 174 184 198 152 196 198 206 213 211 215 232 249 123 179 207 213 211 214 234 227 217 211 214 229
7 58 21 87 36 345 5 177 109 309 61 41 136 142 154 163 172 175 177 173 181 176 189 174 175 171 185 207 171 184 207 207 203 185 213 249 264 266 176 177 196 219 225 257 204 205 225 220 209
253 163 37 9 76 319 320 356 327 55 40 16 114 150 162 171 175 179 181 177 179 179 197 168 185 168 200 189 193 199 191 204 149 200 197 209 239 241 221 176 195 215 199 225 245 183 224 189 261
261 36 212 185 297 357 357 296 7 338 104 113 120 154 167 176 175 181 182 175 182 180 192 201 177 170 191 232 204 234 143 207 197 184 219 178 245 174 202 325 256 207 194 245 266 217 259 185 228
49 275 274 241 307 315 336 311 22 99 60 126 149 166 171 179 178 179 185 174 183 185 189 193 206 176 184 218 242 239 248 168 270 176 226 222 255 187 152 160 252 261 162 181 201 237 238 230 201
249 268 273 213 360 317 327 261 162 65 167 130 175 178 175 179 179 177 188 182 180 188 187 202 195 195 193 199 208 229 219 246 175 241 200 231 207 237 184 154 245 224 208 221 187 246 218 240 225
253 245 262 101 341 98 267 337 107 127 140 193 153 164 190 179 182 183 181 188 170 199 187 202 198 199 185 209 201 219 226 190 199 240 178 241 211 269 247 217 213 216 207 223 257 216 190 227 247
190 268 349 167 120 307 234 321 124 95 295 305 147 161 188 183 189 183 194 194 182 183 191 194 199 208 195 198 216 224 235 221 203 219 242 187 237 220 244 281 244 191 253 209 215 227 212 203 232
104 302 175 298 45 294 286 283 101 80 334 143 138 152 162 213 198 199 200 192 193 185 201 196 188 203 218 187 211 222 226 229 227 196 203 231 232 223 229 257 240 246 226 248 244 200 238 180 207
324 287 277 219 72 290 294 311 68 63 161 150 219 177 175 176 192 208 205 203 187 221 184 208 199 190 211 212 204 217 218 217 214 233 239 212 235 216 235 239 246 250 191 211 253 257 236 280 211
244 254 265 169 195 261 282 309 83 138 99 82 71 171 112 145 233 208 214 207 186 214 188 202 206 198 202 217 220 227 218 226 208 213 225 234 234 209 227 224 259 206 255 206 220 239 249 262 257
238 250 309 337 270 258 257 350 132 132 150 141 129 131 98 118 93 234 208 231 209 205 198 201 201 203 201 226 210 222 251 239 236 200 193 215 217 227 215 213 245 330 267 194 217 224 222 253 272
270 27 269 264 263 280 224 46 286 149 148 162 156 64 16 34 69 314 255 197 221 211 202 199 203 208 208 210 238 217 222 228 222 180 251 181 186 215 232 212 207 229 260 269 199 233 226 251 237
277 349 290 275 261 259 192 105 299 188 141 146 88 109 83 327 81 17 303 280 196 192 193 194 200 217 220 209 232 226 221 226 228 208 212 206 196 241 237 240 218 210 227 258 257 266 204 233 256
268 285 253 244 248 274 312 257 161 270 98 115 114 114 73 85 22 65 26 79 166 163 174 172 189 209 218 229 237 237 265 222 219 244 195 215 231 204 215 226 226 221 226 231 241 235 238 255 288
233 252 247 228 225 89 252 268 177 153 90 91 107 116 85 61 60 84 76 108 130 167 194 187 184 205 223 242 240 241 240 162 256 266 251 251 193 224 256 192 210 217 220 239 216 211 249 237 249
214 253 275 271 256 149 265 257 92 95 101 98 111 107 112 83 97 75 104 121 144 165 164 167 169 190 217 239 256 259 238 191 169 277 264 279 250 231 192 266 250 223 241 228 224 214 224 240 231
259 255 276 295 254 230 122 241 122 122 115 117 107 111 107 100 90 98 113 122 132 156 158 159 163 186 219 256 289 277 259 192 179 207 251 237 244 255 198 240 255 248 239 223 228 218 220 242 238
271 318 224 275 99 280 31 293 92 131 141 128 129 121 117 117 110 103 103 110 133 136 141 146 162 184 139 58 19 343 149 91 93 264 240 230 271 250 247 252 233 237 242 233 234 222 221 231 237
202 238 235 184 256 262 158 169 230 102 128 138 114 148 127 118 109 107 105 112 118 107 113 123 199 191 176 155 135 122 155 141 224 244 264 269 247 247 231 236 245 248 240 229 224 242 253 208 234
305 88 256 273 64 336 301 102 75 99 104 130 135 121 90 99 104 104 107 111 116 117 129 161 300 273 220 175 174 185 223 235 208 227 250 279 269 260 255 250 237 237 228 234 225 241 238 228 232